| time (UTC) | temp F | wind direction | speed MPH | gust MPH | rain 1hr in | rain 24hr in | rain mn in | humidity % | barometer mb |
| 20260506051042 | 51 | 210 | 4.0 | 9.0 | 0.00 | 0.00 | 0.00 | 80 | 1009.2 |
| 20260506045022 | 52 | 206 | 3.0 | 8.0 | 0.00 | 0.00 | 0.00 | 81 | 1009.0 |
| 20260506044044 | 52 | 200 | 4.0 | 7.0 | 0.00 | 0.00 | 0.00 | 80 | 1008.9 |
| 20260506043024 | 52 | 198 | 3.0 | 7.0 | 0.00 | 0.00 | 0.00 | 80 | 1008.6 |
| 20260506042017 | 52 | 192 | 3.0 | 5.0 | 0.00 | 0.00 | 0.00 | 80 | 1008.4 |
| 20260506041043 | 52 | 199 | 3.0 | 9.0 | 0.00 | 0.00 | 0.00 | 80 | 1008.3 |
| 20260506040018 | 52 | 203 | 3.0 | 8.0 | 0.00 | 0.00 | 0.00 | 79 | 1008.1 |
| 20260506035017 | 53 | 195 | 3.0 | 5.0 | 0.00 | 0.00 | 0.00 | 78 | 1007.9 |
| 20260506034017 | 53 | 196 | 3.0 | 7.0 | 0.00 | 0.00 | 0.00 | 77 | 1007.8 |
| 20260506033018 | 53 | 198 | 4.0 | 9.0 | 0.00 | 0.00 | 0.00 | 77 | 1007.5 |
| 20260506032018 | 53 | 211 | 4.0 | 6.0 | 0.00 | 0.00 | 0.00 | 77 | 1007.5 |
| 20260506031019 | 53 | 211 | 4.0 | 8.0 | 0.00 | 0.00 | 0.00 | 77 | 1007.4 |
| 20260506030018 | 53 | 208 | 5.0 | 9.0 | 0.00 | 0.00 | 0.00 | 76 | 1007.4 |
| 20260506025020 | 54 | 232 | 4.0 | 8.0 | 0.00 | 0.00 | 0.00 | 75 | 1007.5 |
| 20260506024019 | 55 | 223 | 4.0 | 8.0 | 0.00 | 0.00 | 0.00 | 74 | 1007.2 |
| 20260506023019 | 55 | 218 | 4.0 | 8.0 | 0.00 | 0.00 | 0.00 | 73 | 1007.4 |
| 20260506022039 | 55 | 237 | 4.0 | 9.0 | 0.00 | 0.00 | 0.00 | 73 | 1007.6 |
| 20260506021019 | 56 | 225 | 4.0 | 9.0 | 0.00 | 0.00 | 0.00 | 73 | 1007.5 |
| 20260506020017 | 56 | 228 | 4.0 | 10.0 | 0.00 | 0.00 | 0.00 | 72 | 1007.2 |
| 20260506015021 | 56 | 270 | 4.0 | 9.0 | 0.00 | 0.00 | 0.00 | 72 | 1007.1 |
| 20260506014018 | 57 | 245 | 3.0 | 8.0 | 0.00 | 0.00 | 0.00 | 72 | 1006.9 |
| 20260506013018 | 57 | 230 | 4.0 | 9.0 | 0.00 | 0.00 | 0.00 | 72 | 1006.8 |
| 20260506012021 | 57 | 225 | 4.0 | 9.0 | 0.00 | 0.00 | 0.00 | 73 | 1006.6 |
| 20260506011039 | 58 | 271 | 3.0 | 9.0 | 0.00 | 0.00 | 0.00 | 73 | 1006.5 |
| 20260506010018 | 59 | 271 | 2.0 | 6.0 | 0.00 | 0.00 | 0.00 | 70 | 1006.1 |
| 20260506005018 | 60 | 298 | 3.0 | 11.0 | 0.00 | 0.00 | 0.00 | 64 | 1005.6 |
| 20260506004018 | 61 | 298 | 3.0 | 9.0 | 0.00 | 0.00 | 0.00 | 58 | 1005.3 |
| 20260506003019 | 62 | 271 | 3.0 | 9.0 | 0.00 | 0.00 | 0.00 | 57 | 1005.1 |
| 20260506002023 | 62 | 302 | 4.0 | 8.0 | 0.00 | 0.00 | 0.00 | 56 | 1004.9 |
| 20260506001020 | 63 | 293 | 3.0 | 10.0 | 0.00 | 0.00 | 0.00 | 57 | 1004.7 |
| 20260506000020 | 63 | 317 | 4.0 | 10.0 | 0.00 | 0.00 | 0.00 | 57 | 1004.4 |
| 20260505235019 | 65 | 303 | 3.0 | 9.0 | 0.00 | 0.00 | 0.00 | 61 | 1004.3 |
| 20260505234039 | 65 | 265 | 2.0 | 6.0 | 0.00 | 0.00 | 0.00 | 57 | 1003.7 |
| 20260505233039 | 65 | 281 | 3.0 | 8.0 | 0.00 | 0.00 | 0.00 | 57 | 1003.4 |
| 20260505232038 | 65 | 296 | 3.0 | 8.0 | 0.00 | 0.00 | 0.00 | 57 | 1003.3 |
| 20260505231019 | 66 | 282 | 5.0 | 13.0 | 0.00 | 0.00 | 0.00 | 57 | 1003.3 |
| 20260505230041 | 66 | 257 | 4.0 | 21.0 | 0.00 | 0.00 | 0.00 | 56 | 1003.1 |
| 20260505225017 | 67 | 254 | 4.0 | 11.0 | 0.00 | 0.00 | 0.00 | 57 | 1002.9 |
| 20260505224020 | 67 | 250 | 4.0 | 10.0 | 0.00 | 0.00 | 0.00 | 58 | 1002.8 |
| 20260505223040 | 67 | 275 | 5.0 | 17.0 | 0.00 | 0.00 | 0.00 | 59 | 1002.6 |
| 20260505222017 | 67 | 259 | 4.0 | 9.0 | 0.00 | 0.00 | 0.00 | 59 | 1002.4 |
| 20260505221018 | 67 | 227 | 3.0 | 11.0 | 0.00 | 0.00 | 0.00 | 58 | 1002.2 |
| 20260505220021 | 67 | 265 | 3.0 | 9.0 | 0.00 | 0.00 | 0.00 | 57 | 1002.2 |
| 20260505215018 | 68 | 244 | 3.0 | 8.0 | 0.00 | 0.00 | 0.00 | 56 | 1001.9 |
| 20260505214018 | 68 | 245 | 4.0 | 9.0 | 0.00 | 0.00 | 0.00 | 59 | 1001.8 |
| 20260505213021 | 67 | 283 | 4.0 | 11.0 | 0.00 | 0.00 | 0.00 | 64 | 1001.6 |
| 20260505212040 | 67 | 267 | 3.0 | 10.0 | 0.00 | 0.00 | 0.00 | 64 | 1001.4 |
| 20260505211019 | 68 | 300 | 5.0 | 10.0 | 0.00 | 0.00 | 0.00 | 65 | 1001.4 |
| 20260505210019 | 69 | 302 | 5.0 | 12.0 | 0.00 | 0.00 | 0.00 | 64 | 1001.1 |
| 20260505205019 | 70 | 203 | 3.0 | 9.0 | 0.00 | 0.00 | 0.00 | 58 | 1000.6 |
| 20260505204039 | 70 | 204 | 4.0 | 10.0 | 0.00 | 0.00 | 0.00 | 58 | 1000.4 |
| 20260505203020 | 71 | 185 | 4.0 | 10.0 | 0.00 | 0.00 | 0.00 | 59 | 1000.2 |
| 20260505202118 | 71 | 195 | 5.0 | 9.0 | 0.00 | 0.00 | 0.00 | 59 | 1000.2 |
| 20260505201020 | 70 | 185 | 5.0 | 10.0 | 0.00 | 0.00 | 0.00 | 61 | 1000.0 |
| 20260505200020 | 70 | 189 | 3.0 | 9.0 | 0.00 | 0.00 | 0.00 | 65 | 1000.1 |
| 20260505195017 | 69 | 190 | 5.0 | 11.0 | 0.00 | 0.00 | 0.00 | 66 | 1000.2 |
| 20260505194020 | 68 | 187 | 5.0 | 9.0 | 0.00 | 0.00 | 0.00 | 68 | 1000.1 |
| 20260505193017 | 68 | 180 | 4.0 | 10.0 | 0.00 | 0.00 | 0.00 | 68 | 1000.1 |
| 20260505192017 | 69 | 194 | 6.0 | 14.0 | 0.00 | 0.00 | 0.00 | 68 | 1000.0 |
| 20260505191018 | 71 | 182 | 7.0 | 16.0 | 0.00 | 0.00 | 0.00 | 64 | 999.9 |
| 20260505190018 | 71 | 191 | 5.0 | 10.0 | 0.00 | 0.00 | 0.00 | 59 | 999.8 |
| 20260505185018 | 70 | 194 | 4.0 | 10.0 | 0.00 | 0.00 | 0.00 | 61 | 999.9 |
| 20260505184042 | 69 | 192 | 5.0 | 10.0 | 0.00 | 0.00 | 0.00 | 63 | 1000.1 |
| 20260505183021 | 69 | 191 | 4.0 | 10.0 | 0.00 | 0.00 | 0.00 | 64 | 1000.1 |
| 20260505182018 | 69 | 219 | 4.0 | 12.0 | 0.00 | 0.00 | 0.00 | 63 | 1000.4 |
| 20260505181018 | 69 | 224 | 5.0 | 9.0 | 0.00 | 0.00 | 0.00 | 62 | 1000.3 |
| 20260505180019 | 70 | 210 | 6.0 | 13.0 | 0.00 | 0.00 | 0.00 | 60 | 1000.3 |
| 20260505175020 | 70 | 206 | 5.0 | 11.0 | 0.00 | 0.00 | 0.00 | 60 | 1000.2 |
| 20260505174019 | 70 | 233 | 5.0 | 11.0 | 0.00 | 0.00 | 0.00 | 60 | 1000.1 |
| 20260505173016 | 71 | 194 | 4.0 | 12.0 | 0.00 | 0.00 | 0.00 | 61 | 1000.0 |
| 20260505172019 | 70 | 195 | 3.0 | 8.0 | 0.00 | 0.00 | 0.00 | 62 | 999.8 |
| 20260505171020 | 69 | 179 | 3.0 | 7.0 | 0.00 | 0.00 | 0.00 | 64 | 1000.0 |
| 20260505170017 | 69 | 189 | 3.0 | 9.0 | 0.00 | 0.00 | 0.00 | 64 | 1000.0 |
| 20260505165019 | 68 | 198 | 3.0 | 10.0 | 0.00 | 0.00 | 0.00 | 65 | 1000.1 |
| 20260505164020 | 68 | 188 | 3.0 | 9.0 | 0.00 | 0.00 | 0.00 | 68 | 1000.1 |
| 20260505163037 | 69 | 189 | 4.0 | 9.0 | 0.00 | 0.00 | 0.00 | 69 | 1000.0 |
| 20260505162017 | 69 | 186 | 3.0 | 10.0 | 0.00 | 0.00 | 0.00 | 64 | 1000.0 |
| 20260505161041 | 70 | 190 | 3.0 | 7.0 | 0.00 | 0.00 | 0.00 | 65 | 1000.1 |
| 20260505153018 | 69 | 193 | 3.0 | 8.0 | 0.00 | 0.00 | 0.00 | 66 | 1000.4 |
| 20260505152018 | 68 | 190 | 4.0 | 8.0 | 0.00 | 0.00 | 0.00 | 68 | 1000.4 |
| 20260505151019 | 67 | 185 | 5.0 | 10.0 | 0.00 | 0.00 | 0.00 | 68 | 1000.4 |
| 20260505125021 | 54 | 190 | 4.0 | 8.0 | 0.00 | 0.00 | 0.00 | 87 | 1001.6 |
| 20260505124021 | 54 | 192 | 4.0 | 6.0 | 0.00 | 0.00 | 0.00 | 89 | 1001.6 |
| 20260505123021 | 55 | 179 | 4.0 | 8.0 | 0.00 | 0.00 | 0.00 | 89 | 1001.8 |
| 20260505122021 | 56 | 191 | 5.0 | 8.0 | 0.00 | 0.00 | 0.00 | 85 | 1002.0 |
| 20260505121043 | 57 | 201 | 3.0 | 9.0 | 0.00 | 0.00 | 0.00 | 78 | 1002.3 |
| 20260505120022 | 58 | 195 | 3.0 | 6.0 | 0.00 | 0.00 | 0.00 | 75 | 1002.2 |
| 20260505115023 | 59 | 183 | 5.0 | 8.0 | 0.00 | 0.00 | 0.00 | 67 | 1002.0 |
| 20260505114042 | 59 | 181 | 5.0 | 9.0 | 0.00 | 0.00 | 0.00 | 66 | 1001.6 |
| 20260505113019 | 59 | 180 | 5.0 | 11.0 | 0.00 | 0.00 | 0.00 | 65 | 1001.5 |
| 20260505112023 | 58 | 190 | 4.0 | 9.0 | 0.00 | 0.00 | 0.00 | 66 | 1001.5 |
| 20260505111016 | 58 | 200 | 4.0 | 9.0 | 0.00 | 0.00 | 0.00 | 67 | 1001.3 |
| 20260505102023 | 57 | 201 | 4.0 | 8.0 | 0.00 | 0.00 | 0.00 | 66 | 1001.1 |
| 20260505101017 | 56 | 198 | 4.0 | 7.0 | 0.00 | 0.00 | 0.00 | 67 | 1001.0 |
| 20260505100040 | 56 | 196 | 5.0 | 9.0 | 0.00 | 0.00 | 0.00 | 67 | 1001.1 |
| 20260505095018 | 56 | 192 | 4.0 | 8.0 | 0.00 | 0.00 | 0.00 | 67 | 1001.2 |
| 20260505094018 | 56 | 196 | 4.0 | 6.0 | 0.00 | 0.00 | 0.00 | 67 | 1001.3 |
| 20260505093019 | 56 | 200 | 3.0 | 7.0 | 0.00 | 0.00 | 0.00 | 67 | 1001.4 |
| 20260505092019 | 56 | 201 | 3.0 | 6.0 | 0.00 | 0.00 | 0.00 | 67 | 1001.4 |
| 20260505091018 | 56 | 205 | 4.0 | 8.0 | 0.00 | 0.00 | 0.00 | 66 | 1001.4 |
| 20260505090019 | 56 | 199 | 5.0 | 9.0 | 0.00 | 0.00 | 0.00 | 66 | 1001.4 |
| 20260505085019 | 56 | 191 | 4.0 | 8.0 | 0.00 | 0.00 | 0.00 | 66 | 1001.3 |
| 20260505084020 | 56 | 198 | 4.0 | 7.0 | 0.00 | 0.00 | 0.00 | 67 | 1001.4 |
| 20260505083019 | 56 | 199 | 4.0 | 7.0 | 0.00 | 0.00 | 0.00 | 67 | 1001.4 |
| 20260505082019 | 56 | 208 | 4.0 | 9.0 | 0.00 | 0.00 | 0.00 | 67 | 1001.5 |
| 20260505081021 | 56 | 193 | 4.0 | 7.0 | 0.00 | 0.00 | 0.00 | 68 | 1001.3 |
| 20260505080020 | 55 | 204 | 4.0 | 7.0 | 0.00 | 0.00 | 0.00 | 69 | 1001.4 |
| 20260505075021 | 55 | 195 | 4.0 | 7.0 | 0.00 | 0.00 | 0.00 | 70 | 1001.4 |
| 20260505074020 | 55 | 191 | 4.0 | 7.0 | 0.00 | 0.00 | 0.00 | 70 | 1001.5 |
| 20260505073040 | 55 | 196 | 3.0 | 5.0 | 0.00 | 0.00 | 0.00 | 70 | 1001.6 |
| 20260505072040 | 55 | 195 | 3.0 | 7.0 | 0.00 | 0.00 | 0.00 | 69 | 1001.7 |
| 20260505071022 | 56 | 213 | 4.0 | 8.0 | 0.00 | 0.00 | 0.00 | 67 | 1001.9 |
| 20260505070022 | 56 | 207 | 3.0 | 6.0 | 0.00 | 0.00 | 0.00 | 66 | 1001.9 |
| 20260505065021 | 57 | 193 | 3.0 | 6.0 | 0.00 | 0.00 | 0.00 | 66 | 1001.8 |
| 20260505064021 | 57 | 205 | 3.0 | 7.0 | 0.00 | 0.00 | 0.00 | 65 | 1001.8 |
| 20260505063022 | 57 | 190 | 3.0 | 6.0 | 0.00 | 0.00 | 0.00 | 64 | 1001.8 |
| 20260505062041 | 57 | 201 | 3.0 | 7.0 | 0.00 | 0.00 | 0.00 | 65 | 1001.8 |
| 20260505061022 | 57 | 200 | 3.0 | 5.0 | 0.00 | 0.00 | 0.00 | 64 | 1001.8 |
| 20260505060022 | 58 | 197 | 3.0 | 7.0 | 0.00 | 0.00 | 0.00 | 64 | 1001.9 |